Погода в Кахуне

Россия / Кабардино-Балкарская Республика     43°32′19″N   43°52′42″E
темп.,
°C
ветер,
м/с
пор.,
м/с
влажн.,
%
обл.,
%
осадки,
мм/ч
давл.,
гПа
погр.,
м
23 октября, сб
сб2300:00+11зюз11640 0.0 102010
03:00+10з11680 0.0 102110
06:00+9юз11700 0.0 102110
09:00+14вюв00560 0.0 1021166
12:00+18св11440 0.0 1020552
15:00+19всв11380 0.0 1019772
18:00+14в11510 0.0 101911
21:00+12юз11600 0.0 101910
24 октября, вс
вс2400:00+11юз11681 0.0 101910
03:00+11зюз11725 0.0 101910
06:00+10з117458 0.0 102010
09:00+14с115833 0.0 1020201
12:00+17ссв2244100 0.0 1018695
15:00+17св224297 0.0 1016927
18:00+13всв1155100 0.0 101610
21:00+12зсз1159100 0.0 101611
25 октября, пн
пн2500:00+11зсз3465100 0.0 101662
03:00+8ссз81386100 0.6 1020731
06:00+7с5984100 0.3 10231014
09:00+6сз3687100 0.9 1025823
12:00+8сз2465100 0.6 10251076
15:00+9сз4558100 0.8 10251384
18:00+7сз4871100 0.3 10291166
21:00+5ссз366662 0.4 1031464
26 октября, вт
вт2600:00+3зюз227369 0.0 103227
03:00+3зюз117656 0.0 103211
06:00+2ю007964 0.0 103310
09:00+5всв116550 0.0 1034436
12:00+8св21538 0.0 10321014
15:00+8всв21507 0.0 10311111
18:00+5всв33575 0.0 103241
21:00+4в12635 0.0 103219
27 октября, ср
ср2700:00+3ю11715 0.0 103212
03:00+2ю11760 0.0 103110
06:00+1ююв11740 0.0 103110
09:00+5вюв22590 0.0 1030336
12:00+9вюв34450 0.0 1027795
15:00+11в44380 0.0 1025968
18:00+6в22560 0.0 102517
21:00+5зюз01640 0.0 102410